Year,Month,Day,Hour,Minute,Value (Times are PST for temperature in C)
2019,05,26,00,00,9.40
2019,05,26,00,01,9.30
2019,05,26,00,02,9.30
2019,05,26,00,03,9.30
2019,05,26,00,04,9.30
2019,05,26,00,05,9.30
2019,05,26,00,06,9.30
2019,05,26,00,07,9.30
2019,05,26,00,08,9.20
2019,05,26,00,09,9.20
2019,05,26,00,10,9.20
2019,05,26,00,11,9.20
2019,05,26,00,12,9.20
2019,05,26,00,13,9.20
2019,05,26,00,14,9.10
2019,05,26,00,15,9.10
2019,05,26,00,16,9.10
2019,05,26,00,17,9.10
2019,05,26,00,18,9.10
2019,05,26,00,19,9.10
2019,05,26,00,20,9.10
2019,05,26,00,21,9.00
2019,05,26,00,22,9.00
2019,05,26,00,23,9.00
2019,05,26,00,24,8.90
2019,05,26,00,25,8.90
2019,05,26,00,26,8.90
2019,05,26,00,27,8.90
2019,05,26,00,28,8.80
2019,05,26,00,29,8.80
2019,05,26,00,30,8.80
2019,05,26,00,31,8.80
2019,05,26,00,32,8.70
2019,05,26,00,33,8.70
2019,05,26,00,34,8.70
2019,05,26,00,35,8.70
2019,05,26,00,36,8.60
2019,05,26,00,37,8.60
2019,05,26,00,38,8.60
2019,05,26,00,39,8.60
2019,05,26,00,40,8.60
2019,05,26,00,41,8.50
2019,05,26,00,42,8.50
2019,05,26,00,43,8.50
2019,05,26,00,44,8.50
2019,05,26,00,45,8.40
2019,05,26,00,46,8.40
2019,05,26,00,47,8.40
2019,05,26,00,48,8.40
2019,05,26,00,49,8.40
2019,05,26,00,50,8.30
2019,05,26,00,51,8.30
2019,05,26,00,52,8.30
2019,05,26,00,53,8.30
2019,05,26,00,54,8.30
2019,05,26,00,55,8.20
2019,05,26,00,56,8.20
2019,05,26,00,57,8.20
2019,05,26,00,58,8.20
2019,05,26,00,59,8.20
2019,05,26,01,00,8.10
2019,05,26,01,01,8.10
2019,05,26,01,02,8.10
2019,05,26,01,03,8.10
2019,05,26,01,04,8.10
2019,05,26,01,05,8.00
2019,05,26,01,06,8.00
2019,05,26,01,07,8.00
2019,05,26,01,08,8.00
2019,05,26,01,09,7.90
2019,05,26,01,10,7.90
2019,05,26,01,11,7.90
2019,05,26,01,12,7.90
2019,05,26,01,13,7.90
2019,05,26,01,14,7.90
2019,05,26,01,15,7.90
2019,05,26,01,16,7.90
2019,05,26,01,17,7.80
2019,05,26,01,18,7.80
2019,05,26,01,19,7.80
2019,05,26,01,20,7.80
2019,05,26,01,21,7.80
2019,05,26,01,22,7.80
2019,05,26,01,23,7.80
2019,05,26,01,24,7.70
2019,05,26,01,25,7.70
2019,05,26,01,26,7.70
2019,05,26,01,27,7.70
2019,05,26,01,28,7.70
2019,05,26,01,29,7.70
2019,05,26,01,30,7.60
2019,05,26,01,31,7.60
2019,05,26,01,32,7.60
2019,05,26,01,33,7.60
2019,05,26,01,34,7.60
2019,05,26,01,35,7.60
2019,05,26,01,36,7.60
2019,05,26,01,37,7.60
2019,05,26,01,38,7.50
2019,05,26,01,39,7.50
2019,05,26,01,40,7.50
2019,05,26,01,41,7.50
2019,05,26,01,42,7.40
2019,05,26,01,43,7.40
2019,05,26,01,44,7.40
2019,05,26,01,45,7.40
2019,05,26,01,46,7.30
2019,05,26,01,47,7.30
2019,05,26,01,48,7.30
2019,05,26,01,49,7.30
2019,05,26,01,50,7.30
2019,05,26,01,51,7.30
2019,05,26,01,52,7.20
2019,05,26,01,53,7.20
2019,05,26,01,54,7.20
2019,05,26,01,55,7.20
2019,05,26,01,56,7.20
2019,05,26,01,57,7.20
2019,05,26,01,58,7.20
2019,05,26,01,59,7.20
2019,05,26,02,00,7.20
2019,05,26,02,01,7.20
2019,05,26,02,02,7.20
2019,05,26,02,03,7.20
2019,05,26,02,04,7.20
2019,05,26,02,05,7.10
2019,05,26,02,06,7.10
2019,05,26,02,07,7.10
2019,05,26,02,08,7.10
2019,05,26,02,09,7.10
2019,05,26,02,10,7.10
2019,05,26,02,11,7.10
2019,05,26,02,12,7.10
2019,05,26,02,13,7.10
2019,05,26,02,14,7.00
2019,05,26,02,15,7.00
2019,05,26,02,16,7.00
2019,05,26,02,17,7.00
2019,05,26,02,18,6.90
2019,05,26,02,19,6.90
2019,05,26,02,20,6.90
2019,05,26,02,21,6.90
2019,05,26,02,22,6.90
2019,05,26,02,23,6.90
2019,05,26,02,24,6.90
2019,05,26,02,25,6.90
2019,05,26,02,26,6.80
2019,05,26,02,27,6.80
2019,05,26,02,28,6.80
2019,05,26,02,29,6.80
2019,05,26,02,30,6.80
2019,05,26,02,31,6.80
2019,05,26,02,32,6.80
2019,05,26,02,33,6.80
2019,05,26,02,34,6.80
2019,05,26,02,35,6.80
2019,05,26,02,36,6.80
2019,05,26,02,37,6.80
2019,05,26,02,38,6.80
2019,05,26,02,39,6.80
2019,05,26,02,40,6.70
2019,05,26,02,41,6.80
2019,05,26,02,42,6.70
2019,05,26,02,43,6.70
2019,05,26,02,44,6.70
2019,05,26,02,45,6.70
2019,05,26,02,46,6.70
2019,05,26,02,47,6.70
2019,05,26,02,48,6.70
2019,05,26,02,49,6.70
2019,05,26,02,50,6.70
2019,05,26,02,51,6.70
2019,05,26,02,52,6.70
2019,05,26,02,53,6.70
2019,05,26,02,54,6.60
2019,05,26,02,55,6.60
2019,05,26,02,56,6.60
2019,05,26,02,57,6.60
2019,05,26,02,58,6.60
2019,05,26,02,59,6.60
2019,05,26,03,00,6.50
2019,05,26,03,01,6.50
2019,05,26,03,02,6.50
2019,05,26,03,03,6.50
2019,05,26,03,04,6.50
2019,05,26,03,05,6.50
2019,05,26,03,06,6.50
2019,05,26,03,07,6.50
2019,05,26,03,08,6.50
2019,05,26,03,09,6.50
2019,05,26,03,10,6.50
2019,05,26,03,11,6.50
2019,05,26,03,12,6.50
2019,05,26,03,13,6.50
2019,05,26,03,14,6.60
2019,05,26,03,15,6.60
2019,05,26,03,16,6.60
2019,05,26,03,17,6.60
2019,05,26,03,18,6.50
2019,05,26,03,19,6.50
2019,05,26,03,20,6.50
2019,05,26,03,21,6.50
2019,05,26,03,22,6.50
2019,05,26,03,23,6.50
2019,05,26,03,24,6.50
2019,05,26,03,25,6.50
2019,05,26,03,26,6.50
2019,05,26,03,27,6.50
2019,05,26,03,28,6.50
2019,05,26,03,29,6.60
2019,05,26,03,30,6.60
2019,05,26,03,31,6.60
2019,05,26,03,32,6.60
2019,05,26,03,33,6.60
2019,05,26,03,34,6.60
2019,05,26,03,35,6.60
2019,05,26,03,36,6.60
2019,05,26,03,37,6.60
2019,05,26,03,38,6.60
2019,05,26,03,39,6.70
2019,05,26,03,40,6.70
2019,05,26,03,41,6.70
2019,05,26,03,42,6.60
2019,05,26,03,43,6.60
2019,05,26,03,44,6.60
2019,05,26,03,45,6.60
2019,05,26,03,46,6.60
2019,05,26,03,47,6.60
2019,05,26,03,48,6.60
2019,05,26,03,49,6.60
2019,05,26,03,50,6.60
2019,05,26,03,51,6.50
2019,05,26,03,52,6.50
2019,05,26,03,53,6.50
2019,05,26,03,54,6.50
2019,05,26,03,55,6.50
2019,05,26,03,56,6.40
2019,05,26,03,57,6.40
2019,05,26,03,58,6.40
2019,05,26,03,59,6.40
2019,05,26,04,00,6.40
2019,05,26,04,01,6.40
2019,05,26,04,02,6.40
2019,05,26,04,03,6.40
2019,05,26,04,04,6.40
2019,05,26,04,05,6.40
2019,05,26,04,06,6.40
2019,05,26,04,07,6.40
2019,05,26,04,08,6.40
2019,05,26,04,09,6.30
2019,05,26,04,10,6.30
2019,05,26,04,11,6.30
2019,05,26,04,12,6.30
2019,05,26,04,13,6.30
2019,05,26,04,14,6.30
2019,05,26,04,15,6.30
2019,05,26,04,16,6.30
2019,05,26,04,17,6.30
2019,05,26,04,18,6.30
2019,05,26,04,19,6.30
2019,05,26,04,20,6.30
2019,05,26,04,21,6.30
2019,05,26,04,22,6.30
2019,05,26,04,23,6.30
2019,05,26,04,24,6.30
2019,05,26,04,25,6.30
2019,05,26,04,26,6.30
2019,05,26,04,27,6.30
2019,05,26,04,28,6.30
2019,05,26,04,29,6.30
2019,05,26,04,30,6.30
2019,05,26,04,31,6.30
2019,05,26,04,32,6.30
2019,05,26,04,33,6.20
2019,05,26,04,34,6.20
2019,05,26,04,35,6.20
2019,05,26,04,36,6.20
2019,05,26,04,37,6.20
2019,05,26,04,38,6.20
2019,05,26,04,39,6.20
2019,05,26,04,40,6.30
2019,05,26,04,41,6.30
2019,05,26,04,42,6.30
2019,05,26,04,43,6.30
2019,05,26,04,44,6.30
2019,05,26,04,45,6.30
2019,05,26,04,46,6.30
2019,05,26,04,47,6.30
2019,05,26,04,48,6.30
2019,05,26,04,49,6.30
2019,05,26,04,50,6.30
2019,05,26,04,51,6.30
2019,05,26,04,52,6.30
2019,05,26,04,53,6.30
2019,05,26,04,54,6.30
2019,05,26,04,55,6.20
2019,05,26,04,56,6.20
2019,05,26,04,57,6.20
2019,05,26,04,58,6.20
2019,05,26,04,59,6.20
2019,05,26,05,00,6.20
2019,05,26,05,01,6.20
2019,05,26,05,02,6.20
2019,05,26,05,03,6.10
2019,05,26,05,04,6.10
2019,05,26,05,05,6.10
2019,05,26,05,06,6.10
2019,05,26,05,07,6.10
2019,05,26,05,08,6.10
2019,05,26,05,09,6.10
2019,05,26,05,10,6.10
2019,05,26,05,11,6.10
2019,05,26,05,12,6.10
2019,05,26,05,13,6.10
2019,05,26,05,14,6.10
2019,05,26,05,15,6.10
2019,05,26,05,16,6.10
2019,05,26,05,17,6.10
2019,05,26,05,18,6.10
2019,05,26,05,19,6.10
2019,05,26,05,20,6.00
2019,05,26,05,21,6.00
2019,05,26,05,22,6.00
2019,05,26,05,23,6.00
2019,05,26,05,24,6.00
2019,05,26,05,25,6.00
2019,05,26,05,26,6.00
2019,05,26,05,27,6.00
2019,05,26,05,28,6.00
2019,05,26,05,29,6.00
2019,05,26,05,30,6.00
2019,05,26,05,31,6.00
2019,05,26,05,32,6.00
2019,05,26,05,33,6.00
2019,05,26,05,34,6.00
2019,05,26,05,35,6.00
2019,05,26,05,36,6.00
2019,05,26,05,37,6.00
2019,05,26,05,38,6.00
2019,05,26,05,39,6.00
2019,05,26,05,40,6.00
2019,05,26,05,41,6.00
2019,05,26,05,42,6.00
2019,05,26,05,43,6.00
2019,05,26,05,44,6.00
2019,05,26,05,45,6.00
2019,05,26,05,46,6.00
2019,05,26,05,47,6.00
2019,05,26,05,48,6.10
2019,05,26,05,49,6.10
2019,05,26,05,50,6.10
2019,05,26,05,51,6.10
2019,05,26,05,52,6.10
2019,05,26,05,53,6.10
2019,05,26,05,54,6.10
2019,05,26,05,55,6.10
2019,05,26,05,56,6.10
2019,05,26,05,57,6.10
2019,05,26,05,58,6.10
2019,05,26,05,59,6.10
2019,05,26,06,00,6.10
2019,05,26,06,01,6.10
2019,05,26,06,02,6.10
2019,05,26,06,03,6.10
2019,05,26,06,04,6.10
2019,05,26,06,05,6.10
2019,05,26,06,06,6.10
2019,05,26,06,07,6.10
2019,05,26,06,08,6.10
2019,05,26,06,09,6.10
2019,05,26,06,10,6.20
2019,05,26,06,11,6.20
2019,05,26,06,12,6.20
2019,05,26,06,13,6.20
2019,05,26,06,14,6.20
2019,05,26,06,15,6.20
2019,05,26,06,16,6.20
2019,05,26,06,17,6.20
2019,05,26,06,18,6.20
2019,05,26,06,19,6.20
2019,05,26,06,20,6.20
2019,05,26,06,21,6.20
2019,05,26,06,22,6.30
2019,05,26,06,23,6.30
2019,05,26,06,24,6.30
2019,05,26,06,25,6.30
2019,05,26,06,26,6.30
2019,05,26,06,27,6.30
2019,05,26,06,28,6.30
2019,05,26,06,29,6.30
2019,05,26,06,30,6.30
2019,05,26,06,31,6.30
2019,05,26,06,32,6.30
2019,05,26,06,33,6.30
2019,05,26,06,34,6.30
2019,05,26,06,35,6.40
2019,05,26,06,36,6.40
2019,05,26,06,37,6.40
2019,05,26,06,38,6.40
2019,05,26,06,39,6.40
2019,05,26,06,40,6.40
2019,05,26,06,41,6.50
2019,05,26,06,42,6.50
2019,05,26,06,43,6.50
2019,05,26,06,44,6.60
2019,05,26,06,45,6.60
2019,05,26,06,46,6.70
2019,05,26,06,47,6.70
2019,05,26,06,48,6.70
2019,05,26,06,49,6.80
2019,05,26,06,50,6.80
2019,05,26,06,51,6.80
2019,05,26,06,52,6.80
2019,05,26,06,53,6.80
2019,05,26,06,54,6.80
2019,05,26,06,55,6.90
2019,05,26,06,56,6.90
2019,05,26,06,57,6.90
2019,05,26,06,58,6.90
2019,05,26,06,59,6.90
2019,05,26,07,00,6.90
2019,05,26,07,01,7.00
2019,05,26,07,02,7.00
2019,05,26,07,03,7.10
2019,05,26,07,04,7.10
2019,05,26,07,05,7.10
2019,05,26,07,06,7.20
2019,05,26,07,07,7.20
2019,05,26,07,08,7.30
2019,05,26,07,09,7.40
2019,05,26,07,10,7.50
2019,05,26,07,11,7.50
2019,05,26,07,12,7.60
2019,05,26,07,13,7.70
2019,05,26,07,14,7.80
2019,05,26,07,15,7.90
2019,05,26,07,16,7.90
2019,05,26,07,17,8.00
2019,05,26,07,18,8.10
2019,05,26,07,19,8.20
2019,05,26,07,20,8.30
2019,05,26,07,21,8.50
2019,05,26,07,22,8.60
2019,05,26,07,23,8.70
2019,05,26,07,24,8.90
2019,05,26,07,25,9.00
2019,05,26,07,26,9.20
2019,05,26,07,27,9.30
2019,05,26,07,28,9.40
2019,05,26,07,29,9.60
2019,05,26,07,30,9.70
2019,05,26,07,31,9.90
2019,05,26,07,32,10.00
2019,05,26,07,33,10.10
2019,05,26,07,34,10.20
2019,05,26,07,35,10.20
2019,05,26,07,36,10.30
2019,05,26,07,37,10.40
2019,05,26,07,38,10.50
2019,05,26,07,39,10.60
2019,05,26,07,40,10.70
2019,05,26,07,41,10.80
2019,05,26,07,42,10.80
2019,05,26,07,43,10.90
2019,05,26,07,44,10.90
2019,05,26,07,45,11.00
2019,05,26,07,46,11.00
2019,05,26,07,47,11.10
2019,05,26,07,48,11.20
2019,05,26,07,49,11.20
2019,05,26,07,50,11.20
2019,05,26,07,51,11.10
2019,05,26,07,52,11.10
2019,05,26,07,53,11.10
2019,05,26,07,54,11.10
2019,05,26,07,55,11.10
2019,05,26,07,56,11.10
2019,05,26,07,57,11.10
2019,05,26,07,58,11.20
2019,05,26,07,59,11.20
2019,05,26,08,00,11.30
2019,05,26,08,01,11.40
2019,05,26,08,02,11.50
2019,05,26,08,03,11.60
2019,05,26,08,04,11.60
2019,05,26,08,05,11.70
2019,05,26,08,06,11.80
2019,05,26,08,07,11.90
2019,05,26,08,08,12.00
2019,05,26,08,09,12.00
2019,05,26,08,10,12.10
2019,05,26,08,11,12.10
2019,05,26,08,12,12.10
2019,05,26,08,13,12.20
2019,05,26,08,14,12.20
2019,05,26,08,15,12.20
2019,05,26,08,16,12.20
2019,05,26,08,17,12.20
2019,05,26,08,18,12.30
2019,05,26,08,19,12.30
2019,05,26,08,20,12.40
2019,05,26,08,21,12.50
2019,05,26,08,22,12.60
2019,05,26,08,23,12.70
2019,05,26,08,24,12.80
2019,05,26,08,25,12.80
2019,05,26,08,26,12.90
2019,05,26,08,27,13.00
2019,05,26,08,28,13.10
2019,05,26,08,29,13.30
2019,05,26,08,30,13.40
2019,05,26,08,31,13.40
2019,05,26,08,32,13.60
2019,05,26,08,33,13.60
2019,05,26,08,34,13.70
2019,05,26,08,35,13.80
2019,05,26,08,36,13.90
2019,05,26,08,37,14.10
2019,05,26,08,38,14.20
2019,05,26,08,39,14.30
2019,05,26,08,40,14.40
2019,05,26,08,41,14.50
2019,05,26,08,42,14.60
2019,05,26,08,43,14.80
2019,05,26,08,44,14.90
2019,05,26,08,45,15.00
2019,05,26,08,46,15.00
2019,05,26,08,47,15.10
2019,05,26,08,48,15.20
2019,05,26,08,49,15.30
2019,05,26,08,50,15.30
2019,05,26,08,51,15.40
2019,05,26,08,52,15.40
2019,05,26,08,53,15.50
2019,05,26,08,54,15.60
2019,05,26,08,55,15.60
2019,05,26,08,56,15.70
2019,05,26,08,57,15.70
2019,05,26,08,58,15.80
2019,05,26,08,59,15.90
2019,05,26,09,00,15.90
2019,05,26,09,01,15.90
2019,05,26,09,02,15.90
2019,05,26,09,03,15.90
2019,05,26,09,04,16.00
2019,05,26,09,05,16.10
2019,05,26,09,06,16.10
2019,05,26,09,07,16.10
2019,05,26,09,08,16.10
2019,05,26,09,09,16.20
2019,05,26,09,10,16.20
2019,05,26,09,11,16.20
2019,05,26,09,12,16.30
2019,05,26,09,13,16.30
2019,05,26,09,14,16.30
2019,05,26,09,15,16.40
2019,05,26,09,16,16.40
2019,05,26,09,17,16.40
2019,05,26,09,18,16.40
2019,05,26,09,19,16.40
2019,05,26,09,20,16.40
2019,05,26,09,21,16.40
2019,05,26,09,22,16.40
2019,05,26,09,23,16.50
2019,05,26,09,24,16.60
2019,05,26,09,25,16.70
2019,05,26,09,26,16.80
2019,05,26,09,27,16.90
2019,05,26,09,28,16.90
2019,05,26,09,29,17.00
2019,05,26,09,30,17.00
2019,05,26,09,31,17.10
2019,05,26,09,32,17.10
2019,05,26,09,33,17.10
2019,05,26,09,34,17.10
2019,05,26,09,35,17.10
2019,05,26,09,36,17.10
2019,05,26,09,37,17.10
2019,05,26,09,38,17.20
2019,05,26,09,39,17.20
2019,05,26,09,40,17.20
2019,05,26,09,41,17.30
2019,05,26,09,42,17.30
2019,05,26,09,43,17.20
2019,05,26,09,44,17.20
2019,05,26,09,45,17.30
2019,05,26,09,46,17.30
2019,05,26,09,47,17.40
2019,05,26,09,48,17.60
2019,05,26,09,49,17.70
2019,05,26,09,50,17.80
2019,05,26,09,51,17.80
2019,05,26,09,52,17.80
2019,05,26,09,53,17.90
2019,05,26,09,54,17.90
2019,05,26,09,55,18.00
2019,05,26,09,56,18.10
2019,05,26,09,57,18.20
2019,05,26,09,58,18.30
2019,05,26,09,59,18.30
2019,05,26,10,00,18.30
2019,05,26,10,01,18.30
2019,05,26,10,02,18.30
2019,05,26,10,03,18.30
2019,05,26,10,04,18.10
2019,05,26,10,05,18.10
2019,05,26,10,06,18.00
2019,05,26,10,07,17.80
2019,05,26,10,08,17.80
2019,05,26,10,09,17.70
2019,05,26,10,10,17.70
2019,05,26,10,11,17.60
2019,05,26,10,12,17.60
2019,05,26,10,13,17.60
2019,05,26,10,14,17.70
2019,05,26,10,15,17.70
2019,05,26,10,16,17.80
2019,05,26,10,17,17.80
2019,05,26,10,18,17.90
2019,05,26,10,19,17.90
2019,05,26,10,20,17.90
2019,05,26,10,21,17.90
2019,05,26,10,22,18.00
2019,05,26,10,23,18.10
2019,05,26,10,24,18.10
2019,05,26,10,25,18.20
2019,05,26,10,26,18.30
2019,05,26,10,27,18.30
2019,05,26,10,28,18.40
2019,05,26,10,29,18.30
2019,05,26,10,30,18.40
2019,05,26,10,31,18.40
2019,05,26,10,32,18.50
2019,05,26,10,33,18.60
2019,05,26,10,34,18.60
2019,05,26,10,35,18.50
2019,05,26,10,36,18.50
2019,05,26,10,37,18.40
2019,05,26,10,38,18.30
2019,05,26,10,39,18.20
2019,05,26,10,40,18.20
2019,05,26,10,41,18.10
2019,05,26,10,42,18.10
2019,05,26,10,43,18.10
2019,05,26,10,44,18.10
2019,05,26,10,45,18.20
2019,05,26,10,46,18.20
2019,05,26,10,47,18.30
2019,05,26,10,48,18.50
2019,05,26,10,49,18.60
2019,05,26,10,50,18.70
2019,05,26,10,51,18.80
2019,05,26,10,52,18.90
2019,05,26,10,53,19.00
2019,05,26,10,54,19.10
2019,05,26,10,55,19.20
2019,05,26,10,56,19.20
2019,05,26,10,57,19.30
2019,05,26,10,58,19.40
2019,05,26,10,59,19.50
2019,05,26,11,00,19.60
2019,05,26,11,01,19.60
2019,05,26,11,02,19.70
2019,05,26,11,03,19.80
2019,05,26,11,04,19.80
2019,05,26,11,05,19.80
2019,05,26,11,06,19.80
2019,05,26,11,07,19.80
2019,05,26,11,08,19.80
2019,05,26,11,09,19.90
2019,05,26,11,10,20.00
2019,05,26,11,11,20.10
2019,05,26,11,12,20.10
2019,05,26,11,13,20.10
2019,05,26,11,14,20.10
2019,05,26,11,15,20.20
2019,05,26,11,16,20.20
2019,05,26,11,17,20.20
2019,05,26,11,18,20.20
2019,05,26,11,19,20.20
2019,05,26,11,20,20.30
2019,05,26,11,21,20.30
2019,05,26,11,22,20.20
2019,05,26,11,23,20.20
2019,05,26,11,24,20.10
2019,05,26,11,25,20.20
2019,05,26,11,26,20.20
2019,05,26,11,27,20.20
2019,05,26,11,28,20.20
2019,05,26,11,29,20.30
2019,05,26,11,30,20.50
2019,05,26,11,31,20.60
2019,05,26,11,32,20.70
2019,05,26,11,33,20.60
2019,05,26,11,34,20.60
2019,05,26,11,35,20.60
2019,05,26,11,36,20.60
2019,05,26,11,37,20.70
2019,05,26,11,38,20.70
2019,05,26,11,39,20.80
2019,05,26,11,40,20.80
2019,05,26,11,41,20.80
2019,05,26,11,42,20.70
2019,05,26,11,43,20.70
2019,05,26,11,44,20.70
2019,05,26,11,45,20.70
2019,05,26,11,46,20.80
2019,05,26,11,47,20.80
2019,05,26,11,48,20.80
2019,05,26,11,49,20.70
2019,05,26,11,50,20.70
2019,05,26,11,51,20.60
2019,05,26,11,52,20.60
2019,05,26,11,53,20.50
2019,05,26,11,54,20.40
2019,05,26,11,55,20.30
2019,05,26,11,56,20.30
2019,05,26,11,57,20.20
2019,05,26,11,58,20.20
2019,05,26,11,59,20.10
2019,05,26,12,00,20.10
2019,05,26,12,01,20.20
2019,05,26,12,02,20.20
2019,05,26,12,03,20.30
2019,05,26,12,04,20.30
2019,05,26,12,05,20.30
2019,05,26,12,06,20.30
2019,05,26,12,07,20.40
2019,05,26,12,08,20.30
2019,05,26,12,09,20.30
2019,05,26,12,10,20.30
2019,05,26,12,11,20.20
2019,05,26,12,12,20.10
2019,05,26,12,13,20.00
2019,05,26,12,14,19.80
2019,05,26,12,15,19.70
2019,05,26,12,16,19.60
2019,05,26,12,17,19.60
2019,05,26,12,18,19.60
2019,05,26,12,19,19.50
2019,05,26,12,20,19.40
2019,05,26,12,21,19.30
2019,05,26,12,22,19.20
2019,05,26,12,23,19.10
2019,05,26,12,24,19.10
2019,05,26,12,25,19.00
2019,05,26,12,26,18.90
2019,05,26,12,27,18.80
2019,05,26,12,28,18.80
2019,05,26,12,29,18.90
2019,05,26,12,30,19.00
2019,05,26,12,31,19.10
2019,05,26,12,32,19.10
2019,05,26,12,33,19.20
2019,05,26,12,34,19.30
2019,05,26,12,35,19.30
2019,05,26,12,36,19.20
2019,05,26,12,37,19.10
2019,05,26,12,38,19.10
2019,05,26,12,39,19.10
2019,05,26,12,40,19.10
2019,05,26,12,41,19.10
2019,05,26,12,42,19.10
2019,05,26,12,43,19.10
2019,05,26,12,44,19.00
2019,05,26,12,45,19.00
2019,05,26,12,46,19.10
2019,05,26,12,47,19.10
2019,05,26,12,48,19.20
2019,05,26,12,49,19.30
2019,05,26,12,50,19.40
2019,05,26,12,51,19.50
2019,05,26,12,52,19.40
2019,05,26,12,53,19.40
2019,05,26,12,54,19.40
2019,05,26,12,55,19.40
2019,05,26,12,56,19.40
2019,05,26,12,57,19.50
2019,05,26,12,58,19.60
2019,05,26,12,59,19.70
2019,05,26,13,00,19.70
2019,05,26,13,01,19.80
2019,05,26,13,02,19.90
2019,05,26,13,03,20.00
2019,05,26,13,04,20.00
2019,05,26,13,05,20.10
2019,05,26,13,06,20.00
2019,05,26,13,07,20.00
2019,05,26,13,08,20.00
2019,05,26,13,09,20.00
2019,05,26,13,10,20.10
2019,05,26,13,11,20.10
2019,05,26,13,12,20.10
2019,05,26,13,13,20.10
2019,05,26,13,14,20.20
2019,05,26,13,15,20.20
2019,05,26,13,16,20.20
2019,05,26,13,17,20.20
2019,05,26,13,18,20.20
2019,05,26,13,19,20.10
2019,05,26,13,20,20.00
2019,05,26,13,21,20.10
2019,05,26,13,22,20.10
2019,05,26,13,23,20.10
2019,05,26,13,24,20.00
2019,05,26,13,25,19.90
2019,05,26,13,26,19.80
2019,05,26,13,27,19.60
2019,05,26,13,28,19.50
2019,05,26,13,29,19.50
2019,05,26,13,30,19.40
2019,05,26,13,31,19.40
2019,05,26,13,32,19.40
2019,05,26,13,33,19.30
2019,05,26,13,34,19.30
2019,05,26,13,35,19.20
2019,05,26,13,36,19.10
2019,05,26,13,37,19.10
2019,05,26,13,38,19.00
2019,05,26,13,39,19.00
2019,05,26,13,40,18.90
2019,05,26,13,41,18.90
2019,05,26,13,42,18.80
2019,05,26,13,43,18.90
2019,05,26,13,44,18.90
2019,05,26,13,45,18.90
2019,05,26,13,46,18.90
2019,05,26,13,47,18.90
2019,05,26,13,48,18.90
2019,05,26,13,49,19.00
2019,05,26,13,50,19.00
2019,05,26,13,51,19.00
2019,05,26,13,52,18.90
2019,05,26,13,53,18.90
2019,05,26,13,54,18.90
2019,05,26,13,55,18.90
2019,05,26,13,56,18.90
2019,05,26,13,57,18.80
2019,05,26,13,58,18.80
2019,05,26,13,59,18.80
2019,05,26,14,00,18.80
2019,05,26,14,01,18.80
2019,05,26,14,02,18.80
2019,05,26,14,03,18.80
2019,05,26,14,04,18.80
2019,05,26,14,05,18.70
2019,05,26,14,06,18.70
2019,05,26,14,07,18.60
2019,05,26,14,08,18.60
2019,05,26,14,09,18.60
2019,05,26,14,10,18.60
2019,05,26,14,11,18.60
2019,05,26,14,12,18.60
2019,05,26,14,13,18.60
2019,05,26,14,14,18.60
2019,05,26,14,15,18.60
2019,05,26,14,16,18.60
2019,05,26,14,17,18.60
2019,05,26,14,18,18.60
2019,05,26,14,19,18.60
2019,05,26,14,20,18.60
2019,05,26,14,21,18.60
2019,05,26,14,22,18.70
2019,05,26,14,23,18.70
2019,05,26,14,24,18.70
2019,05,26,14,25,18.80
2019,05,26,14,26,18.80
2019,05,26,14,27,18.80
2019,05,26,14,28,18.90
2019,05,26,14,29,18.80
2019,05,26,14,30,18.80
2019,05,26,14,31,18.80
2019,05,26,14,32,18.90
2019,05,26,14,33,18.90
2019,05,26,14,34,18.90
2019,05,26,14,35,18.90
2019,05,26,14,36,19.00
2019,05,26,14,37,19.00
2019,05,26,14,38,19.00
2019,05,26,14,39,19.10
2019,05,26,14,40,19.10
2019,05,26,14,41,19.10
2019,05,26,14,42,19.10
2019,05,26,14,43,19.10
2019,05,26,14,44,19.10
2019,05,26,14,45,19.10
2019,05,26,14,46,19.20
2019,05,26,14,47,19.20
2019,05,26,14,48,19.20
2019,05,26,14,49,19.30
2019,05,26,14,50,19.30
2019,05,26,14,51,19.30
2019,05,26,14,52,19.30
2019,05,26,14,53,19.30
2019,05,26,14,54,19.30
2019,05,26,14,55,19.30
2019,05,26,14,56,19.20
2019,05,26,14,57,19.20
2019,05,26,14,58,19.30
2019,05,26,14,59,19.30
2019,05,26,15,00,19.40
2019,05,26,15,01,19.50
2019,05,26,15,02,19.60
2019,05,26,15,03,19.60
2019,05,26,15,04,19.70
2019,05,26,15,05,19.80
2019,05,26,15,06,19.90
2019,05,26,15,07,20.00
2019,05,26,15,08,20.20
2019,05,26,15,09,20.30
2019,05,26,15,10,20.40
2019,05,26,15,11,20.40
2019,05,26,15,12,20.50
2019,05,26,15,13,20.60
2019,05,26,15,14,20.60
2019,05,26,15,15,20.60
2019,05,26,15,16,20.60
2019,05,26,15,17,20.70
2019,05,26,15,18,20.70
2019,05,26,15,19,20.80
2019,05,26,15,20,20.80
2019,05,26,15,21,20.70
2019,05,26,15,22,20.70
2019,05,26,15,23,20.60
2019,05,26,15,24,20.60
2019,05,26,15,25,20.60
2019,05,26,15,26,20.60
2019,05,26,15,27,20.60
2019,05,26,15,28,20.60
2019,05,26,15,29,20.60
2019,05,26,15,30,20.70
2019,05,26,15,31,20.70
2019,05,26,15,32,20.70
2019,05,26,15,33,20.80
2019,05,26,15,34,20.80
2019,05,26,15,35,20.90
2019,05,26,15,36,21.00
2019,05,26,15,37,21.00
2019,05,26,15,38,21.10
2019,05,26,15,39,21.10
2019,05,26,15,40,21.10
2019,05,26,15,41,21.20
2019,05,26,15,42,21.20
2019,05,26,15,43,21.30
2019,05,26,15,44,21.30
2019,05,26,15,45,21.40
2019,05,26,15,46,21.40
2019,05,26,15,47,21.40
2019,05,26,15,48,21.50
2019,05,26,15,49,21.60
2019,05,26,15,50,21.50
2019,05,26,15,51,21.50
2019,05,26,15,52,21.40
2019,05,26,15,53,21.40
2019,05,26,15,54,21.40
2019,05,26,15,55,21.40
2019,05,26,15,56,21.40
2019,05,26,15,57,21.40
2019,05,26,15,58,21.50
2019,05,26,15,59,21.50
2019,05,26,16,00,21.50
2019,05,26,16,01,21.60
2019,05,26,16,02,21.60
2019,05,26,16,03,21.60
2019,05,26,16,04,21.60
2019,05,26,16,05,21.50
2019,05,26,16,06,21.50
2019,05,26,16,07,21.50
2019,05,26,16,08,21.40
2019,05,26,16,09,21.40
2019,05,26,16,10,21.40
2019,05,26,16,11,21.40
2019,05,26,16,12,21.40
2019,05,26,16,13,21.40
2019,05,26,16,14,21.40
2019,05,26,16,15,21.40
2019,05,26,16,16,21.40
2019,05,26,16,17,21.40
2019,05,26,16,18,21.40
2019,05,26,16,19,21.40
2019,05,26,16,20,21.40
2019,05,26,16,21,21.40
2019,05,26,16,22,21.40
2019,05,26,16,23,21.50
2019,05,26,16,24,21.50
2019,05,26,16,25,21.60
2019,05,26,16,26,21.60
2019,05,26,16,27,21.70
2019,05,26,16,28,21.80
2019,05,26,16,29,21.80
2019,05,26,16,30,21.80
2019,05,26,16,31,21.80
2019,05,26,16,32,21.80
2019,05,26,16,33,21.80
2019,05,26,16,34,21.80
2019,05,26,16,35,21.80
2019,05,26,16,36,21.80
2019,05,26,16,37,21.70
2019,05,26,16,38,21.70
2019,05,26,16,39,21.70
2019,05,26,16,40,21.70
2019,05,26,16,41,21.60
2019,05,26,16,42,21.60
2019,05,26,16,43,21.50
2019,05,26,16,44,21.50
2019,05,26,16,45,21.40
2019,05,26,16,46,21.40
2019,05,26,16,47,21.40
2019,05,26,16,48,21.40
2019,05,26,16,49,21.50
2019,05,26,16,50,21.50
2019,05,26,16,51,21.60
2019,05,26,16,52,21.60
2019,05,26,16,53,21.60
2019,05,26,16,54,21.60
2019,05,26,16,55,21.60
2019,05,26,16,56,21.60
2019,05,26,16,57,21.60
2019,05,26,16,58,21.60
2019,05,26,16,59,21.70
2019,05,26,17,00,21.70
2019,05,26,17,01,21.70
2019,05,26,17,02,21.70
2019,05,26,17,03,21.80
2019,05,26,17,04,21.80
2019,05,26,17,05,21.80
2019,05,26,17,06,21.80
2019,05,26,17,07,21.80
2019,05,26,17,08,21.80
2019,05,26,17,09,21.80
2019,05,26,17,10,21.80
2019,05,26,17,11,21.80
2019,05,26,17,12,21.80
2019,05,26,17,13,21.90
2019,05,26,17,14,21.90
2019,05,26,17,15,21.90
2019,05,26,17,16,21.90
2019,05,26,17,17,22.00
2019,05,26,17,18,22.00
2019,05,26,17,19,22.00
2019,05,26,17,20,22.00
2019,05,26,17,21,22.00
2019,05,26,17,22,22.00
2019,05,26,17,23,22.00
2019,05,26,17,24,22.00
2019,05,26,17,25,22.00
2019,05,26,17,26,22.00
2019,05,26,17,27,22.00
2019,05,26,17,28,22.00
2019,05,26,17,29,22.00
2019,05,26,17,30,22.00
2019,05,26,17,31,21.90
2019,05,26,17,32,21.90
2019,05,26,17,33,21.90
2019,05,26,17,34,21.90
2019,05,26,17,35,21.90
2019,05,26,17,36,21.90
2019,05,26,17,37,21.90
2019,05,26,17,38,21.80
2019,05,26,17,39,21.80